User: anonymous   Login
Location: Jablonec nad Nisou
(50.7170°N, 15.1830°E)
Time: 22:54:48
(UTC+02:00)
Language:

ISS - Orbit

View from above orbital plane
View from above orbital plane
View from above satellite
View from above satellite

Ground track
Ground track

The orbit data is extracted from the following two-line orbital elements,

1 25544U 98067A   20217.58773727  .00016717  00000-0  10270-3 0  9016
2 25544  51.6444 108.9230 0001159 353.6538   6.4597 15.49126840 39517
Epoch (UTC): 04 August 2020 14:06:20
Eccentricity: 0.0001159
inclination: 51.6444°
perigee height: 418 km
apogee height: 420 km
right ascension of ascending node: 108.9230°
argument of perigee: 353.6538°
revolutions per day: 15.49126840
mean anomaly at epoch: 6.4597°
orbit number at epoch: 3951

The dashed part of the orbit path shows where the satellite is in the earth's shadow,  

DLR